Probability
8 4 1 1 0 0 0 0 0 0 0 0 0 0 0 0 0 0 0 0 0 0 0 0 0 1 2 3 4 6 7 8 10 10 10 8 5 4 3 1 1 2 3 2 3 3 3 2 1
7 3 1 1 1 0 0 0 0 0 0 0 0 0 0 0 0 0 0 0 0 0 0 0 0 1 3 4 5 7 8 9 10 10 10 8 6 4 3 2 2 3 3 3 3 3 2 1 0
5 2 1 2 1 0 0 0 0 1 1 1 0 0 0 0 0 0 0 0 0 0 0 0 0 1 3 4 5 7 9 10 9 9 9 8 7 5 4 3 3 4 4 3 3 1 1 0 0
3 1 1 1 0 0 0 0 1 3 3 1 0 0 0 0 0 0 0 1 1 1 0 0 1 3 4 4 4 6 8 8 8 8 8 8 7 5 4 4 4 5 6 4 2 1 1 1 1
1 0 0 0 0 0 0 0 1 4 4 2 0 0 0 0 0 0 0 2 2 1 0 0 2 5 5 4 4 5 5 5 5 5 6 6 5 4 4 4 4 5 6 5 3 3 3 2 2
0 0 0 0 0 0 0 0 1 4 5 2 1 0 0 0 0 0 0 1 2 2 1 0 2 5 5 4 4 4 3 3 3 2 3 3 4 3 3 3 3 3 4 4 5 5 4 2 3
0 0 0 0 0 0 0 1 2 5 5 2 1 0 0 0 0 0 0 1 2 2 1 0 1 3 3 3 4 3 1 1 1 1 1 1 2 3 3 3 2 2 2 3 4 5 4 3 2
0 0 0 0 0 0 0 2 4 5 4 2 1 0 0 0 0 0 1 1 2 1 0 0 0 1 1 2 2 1 0 1 1 1 1 1 1 2 2 1 1 2 3 4 4 4 3 2 1
0 0 0 0 0 0 0 1 3 4 3 2 1 1 1 1 0 0 1 2 2 1 0 0 0 0 0 1 1 0 1 2 2 1 1 0 0 1 1 1 2 2 4 4 4 3 3 1 0
0 0 0 0 0 1 1 1 2 3 3 2 1 2 3 3 1 0 1 2 2 1 0 0 0 0 0 0 0 0 1 2 3 2 1 0 0 0 1 2 2 3 3 3 2 2 2 1 0
0 0 0 0 1 2 2 1 1 1 2 1 1 3 3 2 1 0 0 1 1 1 0 0 0 0 0 0 0 0 1 2 3 2 1 0 0 0 1 1 2 2 1 1 1 1 1 0 0
0 0 0 0 1 2 2 1 0 0 0 0 0 1 1 1 0 0 0 0 0 1 0 0 0 0 0 0 0 0 1 2 2 1 0 0 0 0 0 0 0 0 0 0 0 0 0 0 0
0 0 0 0 0 1 1 1 1 0 0 0 0 0 0 0 0 0 0 0 1 1 0 0 0 0 0 0 0 0 1 2 1 0 0 0 0 0 0 0 0 0 0 0 0 0 0 0 0
0 0 0 0 0 0 1 1 1 0 0 0 0 0 0 0 0 0 0 0 1 0 0 0 0 0 0 0 0 0 1 1 0 0 0 0 0 0 0 0 0 0 0 0 0 0 0 0 0
0 0 0 0 0 0 0 0 0 0 0 0 0 0 0 0 0 0 0 0 0 0 0 0 0 0 0 0 0 0 0 0 0 0 0 0 0 0 0 0 0 0 0 0 0 0 0 0 0
0 0 0 0 0 0 0 0 1 1 1 1 0 0 1 1 1 1 1 1 1 1 1 0 0 0 0 0 0 0 0 0 0 0 0 0 0 0 0 0 0 0 0 0 0 0 0 0 0
0 0 0 0 0 0 0 0 1 2 2 2 1 1 2 2 2 2 2 3 3 3 3 1 0 0 0 0 0 0 0 0 0 0 0 0 0 0 0 0 0 0 0 0 0 0 0 0 0
0 0 0 0 0 0 0 0 0 1 2 3 3 3 3 3 3 3 3 4 5 5 4 3 1 1 1 0 0 0 0 0 0 0 0 0 0 0 0 0 0 0 0 0 0 0 0 0 0
0 0 0 0 0 0 0 0 0 0 1 2 3 3 3 3 3 3 2 3 5 6 4 3 3 2 2 1 0 0 0 0 0 0 0 0 0 0 0 0 0 0 0 0 0 0 0 0 0
0 0 0 0 0 0 1 0 0 0 0 1 2 3 3 4 3 3 2 3 4 5 4 3 3 3 3 1 0 0 0 0 0 0 0 0 0 0 0 0 0 0 0 0 0 0 0 0 0
0 0 0 0 0 0 0 0 0 0 0 0 1 1 2 3 3 4 4 4 5 5 4 3 3 3 3 2 1 0 0 0 0 0 0 0 0 0 0 0 0 0 0 0 0 0 0 1 1
0 0 0 0 0 0 0 0 0 1 1 1 1 1 2 2 3 4 6 6 7 7 5 4 3 3 4 4 3 1 1 0 0 0 0 0 0 0 0 0 0 0 0 0 0 0 0 1 1
0 0 0 0 0 0 0 0 1 2 2 2 2 2 3 4 4 5 6 8 9 9 9 6 5 5 7 8 7 4 3 1 0 0 0 0 0 0 0 0 0 0 0 0 0 1 1 1 2
0 0 0 0 0 0 0 0 2 3 3 3 3 3 4 6 6 5 6 8 9 10 12 12 9 8 10 11 10 7 5 3 2 1 1 0 0 0 0 0 0 0 0 0 1 2 2 3 3
0 0 0 0 0 0 0 0 1 2 2 2 1 2 4 7 7 5 5 6 7 9 12 15 13 10 10 11 11 9 7 5 4 3 2 1 1 1 0 0 0 0 0 1 1 3 4 4 4
0 0 0 0 0 0 0 0 0 1 1 1 1 2 4 6 6 5 5 6 7 8 11 14 14 11 10 10 10 10 9 8 6 4 3 4 4 3 2 1 1 0 1 1 2 3 4 5 5
0 0 0 0 0 0 0 0 0 1 2 3 3 3 4 4 5 5 4 6 7 8 10 14 14 12 9 8 9 9 10 9 8 6 5 5 6 6 5 3 2 2 1 1 1 2 3 5 6
0 0 0 0 0 0 0 0 0 1 3 4 3 3 3 3 4 4 6 7 8 9 11 14 15 12 9 8 8 10 11 10 9 8 7 6 6 8 9 7 6 5 2 1 1 3 4 4 5
0 0 0 0 0 0 0 0 0 1 2 2 2 2 3 2 3 5 8 9 9 11 13 16 16 13 9 8 10 12 13 12 11 11 10 9 8 9 11 11 10 8 6 4 4 5 5 5 5
0 0 0 0 0 0 0 0 1 1 1 1 1 3 3 2 3 7 10 10 10 12 15 17 17 14 11 11 13 15 15 14 13 12 11 11 11 11 13 13 13 11 9 7 7 6 6 6 7
Wind_Speed
11 8 3 1 3 4 2 2 0 1 3 3 4 6 6 4 2 1 1 1 3 3 3 6 8 9 9 10 11 13 14 15 16 17 18 19 19 19 18 18 17 17 17 16 16 16 16 15 15
7 6 1 1 4 3 3 2 1 1 3 3 4 5 5 4 3 3 1 1 3 4 4 5 9 9 9 10 11 13 14 15 16 17 18 18 18 18 18 17 17 17 17 16 16 16 16 15 15
8 4 1 3 3 2 2 1 2 3 3 2 3 4 4 3 3 2 1 4 4 4 3 5 9 9 9 10 11 12 14 15 16 16 17 18 18 18 18 17 17 17 16 16 15 15 15 14 14
4 1 2 3 1 3 3 3 4 4 3 4 4 5 4 3 2 3 5 5 5 4 3 4 9 9 9 9 11 11 13 14 14 15 16 16 17 17 17 17 16 16 15 15 15 14 14 13 13
1 2 4 3 2 2 1 4 3 2 2 3 4 4 3 3 6 7 6 6 5 3 2 2 7 7 8 9 10 11 12 13 13 14 15 15 15 15 15 15 16 16 15 14 14 13 13 12 11
2 3 4 2 3 2 1 3 3 3 3 3 4 4 2 3 6 6 5 5 4 4 2 2 5 7 7 9 10 11 12 12 13 13 14 14 14 14 14 14 15 15 14 13 13 12 12 11 10
2 3 1 1 1 1 2 3 3 4 3 3 4 5 2 2 4 5 5 5 4 3 2 2 2 4 6 8 9 10 11 11 12 13 13 13 14 14 14 13 14 14 13 12 11 11 10 9 9
3 3 1 1 2 2 3 3 3 4 3 4 4 6 5 5 6 6 5 4 3 2 2 2 2 2 2 3 8 9 10 11 12 12 12 13 13 13 13 11 12 13 12 11 11 10 9 8 8
2 3 1 3 4 3 4 4 3 3 5 3 3 4 6 11 10 7 5 3 2 1 1 1 2 2 2 2 5 6 8 9 9 9 11 9 5 5 7 9 11 11 11 10 10 9 8 7 6
3 2 6 5 5 4 5 5 6 4 3 2 4 6 11 12 10 8 6 5 3 2 1 1 1 1 2 2 2 2 3 3 4 4 5 4 4 4 5 7 9 9 10 9 9 8 7 5 3
4 5 4 3 4 5 5 5 5 8 4 6 9 12 13 11 9 8 7 6 5 3 3 2 2 2 2 2 2 1 2 3 3 4 4 4 3 3 3 2 3 4 5 4 4 4 3 3 2
3 5 4 3 2 4 6 6 4 5 5 6 12 14 13 13 11 10 9 7 5 4 3 3 2 2 2 2 2 2 3 3 2 3 4 3 2 2 2 2 2 2 2 3 2 2 2 2 1
3 3 3 3 3 4 6 4 4 2 4 10 12 12 12 11 9 8 7 6 5 5 4 4 3 3 3 3 2 2 3 3 3 3 3 4 3 3 3 2 2 2 2 2 2 2 1 1 1
2 1 2 1 2 3 6 2 3 3 9 11 12 11 11 11 10 7 6 6 6 6 5 4 4 4 4 3 2 2 2 3 3 3 3 4 3 3 3 3 2 2 2 2 2 2 1 0 0
1 2 4 2 2 2 6 2 2 5 10 11 11 10 9 9 8 8 8 7 7 6 5 5 5 4 4 4 3 3 3 3 3 3 3 4 4 4 3 3 2 2 2 2 2 2 1 1 1
3 3 2 3 1 2 5 3 3 7 11 10 10 10 9 8 8 7 7 6 6 5 5 5 5 5 5 4 3 3 3 3 3 3 3 4 4 4 4 3 3 3 3 2 2 2 1 1 1
4 2 1 4 0 2 3 3 2 8 9 9 9 9 8 7 7 7 7 7 6 6 6 5 5 6 5 4 3 3 3 3 3 3 3 4 4 5 4 3 3 3 3 2 3 2 2 1 1
2 1 2 3 2 2 2 3 3 7 9 8 8 7 7 9 9 8 7 7 6 6 5 5 5 5 5 4 3 2 2 2 2 3 3 4 4 5 4 3 3 4 3 2 2 2 2 1 1
3 2 4 5 2 2 3 3 4 7 7 7 7 8 9 9 7 6 7 7 6 6 6 6 6 5 5 3 3 3 2 2 2 3 4 5 5 5 5 4 4 4 3 3 4 2 2 1 1
3 2 4 4 0 3 2 3 3 6 10 9 9 9 10 7 6 7 7 7 8 8 7 6 6 6 6 4 3 3 3 2 2 2 3 5 5 6 6 5 4 4 3 3 3 3 2 1 2
3 5 5 3 2 2 1 4 2 2 3 4 6 6 7 9 8 8 8 9 8 9 9 9 8 6 6 5 3 3 2 2 1 2 2 3 5 6 5 6 5 4 4 4 4 4 4 2 2
4 6 5 3 2 2 1 2 6 3 2 4 6 7 8 8 8 8 9 9 10 10 9 8 7 6 6 6 5 5 4 4 4 3 2 3 4 4 5 5 5 5 4 4 4 4 4 4 3
6 1 2 2 3 1 1 2 7 2 3 7 8 9 8 8 9 9 10 10 9 9 9 8 7 6 6 6 7 6 4 3 2 2 3 3 2 3 4 5 4 5 4 5 4 4 4 4 4
4 6 6 6 5 0 3 4 6 4 6 6 6 8 8 8 8 8 7 6 6 7 7 7 7 6 6 6 6 7 6 5 4 3 3 3 2 2 4 5 5 5 4 5 5 5 5 4 4
5 6 4 4 4 5 2 3 8 7 5 5 6 7 7 8 8 8 8 8 7 7 7 7 8 7 6 7 7 6 6 6 6 5 4 4 3 3 4 5 5 4 5 5 4 5 5 5 5
4 8 8 5 5 4 1 5 8 5 4 3 3 3 4 7 8 9 9 8 8 8 7 7 8 7 7 8 7 6 5 4 4 5 4 5 4 4 4 4 5 5 5 5 4 4 4 4 5
5 3 6 7 2 1 4 6 8 3 2 1 0 1 3 4 6 7 7 7 8 8 8 8 7 7 7 7 6 5 5 5 5 5 5 4 4 4 4 5 5 5 5 5 5 4 4 4 5
5 7 6 6 6 4 4 4 5 5 5 2 2 2 2 3 4 5 6 7 7 7 7 6 7 7 7 6 6 6 5 5 5 4 5 4 4 3 3 4 5 5 4 5 4 4 4 4 4
3 4 5 5 5 7 4 8 6 7 6 5 5 3 2 3 3 3 4 5 5 5 6 6 6 6 6 6 5 5 5 5 5 5 5 4 4 4 4 4 4 4 5 5 5 5 5 5 5
4 5 7 5 4 4 4 9 4 3 4 4 3 2 1 1 2 2 3 3 4 5 6 6 7 7 7 6 6 6 5 5 5 5 5 5 4 4 4 4 4 5 5 5 5 6 5 6 6
Wind_Direction
147 140 143 149 56 44 340 312 308 32 33 22 62 82 96 84 97 131 330 68 83 90 101 125 123 119 115 112 114 121 125 128 132 134 136 136 136 136 136 134 133 131 129 129 126 124 125 124 123
144 152 178 73 72 41 314 317 30 67 137 129 72 72 73 62 57 88 53 77 94 95 93 114 115 115 113 112 114 121 125 128 131 134 136 137 137 138 136 135 134 132 130 129 127 126 126 123 122
158 188 108 73 89 171 240 270 118 110 128 89 71 59 70 77 95 110 124 109 88 85 86 110 115 112 111 114 118 121 125 129 131 134 136 138 137 138 138 137 136 134 131 129 127 126 125 124 123
160 134 54 59 351 228 199 190 143 128 68 55 87 67 62 60 117 123 119 110 97 85 83 110 117 118 116 115 119 123 126 130 132 134 136 137 137 137 137 138 137 133 132 130 128 128 126 126 126
117 80 51 21 312 291 182 161 144 113 79 70 88 86 53 33 95 111 115 111 104 87 74 104 113 115 117 117 121 125 129 130 132 134 136 138 138 139 140 139 137 135 134 134 132 129 129 129 129
77 69 62 347 321 341 114 132 117 94 96 97 98 98 64 93 111 120 113 107 103 97 78 82 117 117 118 121 123 122 126 128 133 136 138 141 141 142 142 142 139 136 136 135 132 131 131 130 128
109 92 127 241 294 305 161 125 125 123 118 129 118 102 103 134 121 114 103 96 89 82 72 53 79 111 122 127 128 127 129 130 134 135 140 144 144 145 145 143 142 141 141 139 136 133 133 130 129
146 102 38 253 206 234 159 123 127 129 121 124 118 135 170 169 128 106 89 80 83 79 66 46 48 73 95 120 132 132 132 134 137 139 140 146 145 145 146 144 147 147 147 145 142 138 139 134 129
125 75 246 231 200 209 155 132 135 100 120 134 126 149 151 136 129 117 104 92 97 117 66 64 55 68 82 106 137 134 136 137 137 139 140 133 120 125 138 145 152 152 151 150 146 145 142 132 128
114 153 232 218 192 173 164 148 148 121 130 113 92 102 123 136 144 146 152 160 172 188 190 137 122 114 106 126 103 95 111 111 107 103 110 103 103 118 129 147 156 157 155 152 149 147 138 116 105
168 210 249 255 195 153 152 147 141 137 189 193 163 148 145 150 157 165 171 174 186 190 188 174 164 137 119 105 104 97 107 101 102 109 109 107 103 109 108 115 142 140 138 125 129 119 103 106 110
188 249 241 259 177 147 151 142 137 170 215 172 157 151 155 162 171 178 179 182 177 175 189 180 164 142 131 117 106 96 108 109 113 120 120 119 118 121 122 118 121 107 105 107 104 102 104 110 124
208 268 260 225 164 152 129 137 142 188 127 129 140 150 163 171 179 184 182 177 173 182 190 183 170 159 142 129 134 121 119 123 122 120 127 133 135 138 137 127 115 115 118 123 129 123 121 122 143
237 269 310 3 116 135 125 120 109 162 133 139 153 166 175 179 181 180 178 179 183 189 190 179 172 166 149 149 153 138 137 134 128 137 146 144 143 141 135 134 134 137 141 143 145 151 147 160 190
10 31 8 29 94 125 110 73 203 158 144 154 168 177 181 186 184 189 189 186 185 187 183 176 174 160 159 165 170 155 150 146 151 159 157 157 155 151 145 144 154 162 150 148 140 135 132 178 210
33 49 9 310 72 113 123 232 215 154 156 168 178 184 186 191 194 194 190 185 181 175 175 182 183 167 169 167 163 156 154 155 164 161 161 170 167 162 154 159 175 167 154 152 151 151 141 163 197
29 49 291 303 355 115 146 235 196 162 170 179 183 186 186 190 198 196 190 185 179 178 176 178 178 169 172 166 156 154 150 163 169 163 168 176 175 170 164 172 176 160 156 165 177 160 162 177 198
233 235 267 271 260 120 194 247 179 173 179 187 185 186 188 197 206 195 189 184 177 174 173 176 176 170 162 153 139 137 147 169 166 174 182 178 177 175 169 173 175 164 161 171 173 169 165 174 184
176 196 255 263 231 156 213 244 203 182 187 194 195 193 197 206 203 186 184 179 172 171 171 180 180 175 162 154 158 162 181 181 176 187 186 185 184 178 173 176 171 170 175 184 177 165 167 180 146
163 213 267 293 303 156 201 262 220 188 201 202 200 201 202 202 194 189 184 181 181 180 181 186 190 180 178 175 164 159 156 169 177 181 178 184 184 181 182 180 182 177 174 178 180 168 163 183 164
208 199 222 231 5 43 83 335 289 236 213 211 209 204 204 200 198 197 191 190 186 186 189 193 193 185 178 163 140 123 107 101 138 171 186 189 184 185 185 182 183 182 180 189 192 180 174 183 195
248 225 201 185 111 295 105 268 287 249 232 221 219 208 206 202 195 195 195 194 194 194 191 190 187 183 175 164 163 165 173 187 194 182 186 186 182 182 182 179 182 185 188 193 200 189 181 173 192
218 181 148 142 143 58 17 159 285 327 253 242 227 216 207 198 195 196 199 200 198 191 187 186 182 183 177 173 174 175 186 189 166 156 172 187 184 184 184 182 184 190 194 198 202 191 189 187 189
160 74 58 51 76 124 240 171 271 244 230 244 229 221 208 196 193 194 196 190 191 186 184 182 179 186 182 181 184 184 186 177 168 174 181 191 190 191 193 190 191 194 196 201 205 197 196 201 202
96 93 37 3 18 248 250 179 245 251 239 230 228 217 204 191 187 187 186 185 187 186 185 181 179 187 185 190 196 196 191 183 187 189 192 192 196 203 207 198 193 197 201 202 196 197 206 204 204
172 143 158 191 213 263 279 224 250 263 268 246 227 202 184 186 185 189 192 190 189 187 184 181 185 188 187 195 200 195 191 191 199 198 194 199 204 211 205 198 201 203 200 200 194 201 211 207 211
139 168 165 137 153 222 269 277 296 292 310 330 81 153 179 183 182 189 189 191 189 188 187 183 184 188 190 196 195 195 199 198 202 201 200 204 206 206 199 198 204 209 205 202 192 204 213 207 215
137 143 103 123 151 219 267 257 245 254 257 258 243 210 205 171 172 185 187 189 189 188 185 178 186 192 191 188 194 197 200 204 205 197 203 204 201 200 190 198 205 210 209 203 197 204 211 210 220
84 93 106 119 154 163 220 257 227 217 223 220 232 236 221 189 184 183 184 183 178 173 178 180 190 196 191 188 190 192 193 196 197 202 208 204 191 184 189 198 204 211 213 209 206 214 212 218 227
148 153 145 153 206 177 182 256 271 205 209 199 211 224 225 188 186 173 164 162 169 177 187 190 193 197 197 190 187 190 189 190 197 207 207 199 194 191 193 198 200 212 214 206 207 218 219 221 227